Weather History for KIJX - January, 2012

Change the Weather History Date:

Sunday, January 1, 2012

  Actual Average (KSPI) Record (KSPI)
Temperature  
Mean Temperature 44 °F 27 °F  
Max Temperature 51 °F 35 °F 61 °F (1905)
Min Temperature 36 °F 19 °F -13 °F (1974)
Degree Days  
Heating Degree Days 22 38  
Month to date heating degree days 38  
Since 1 July heating degree days 2178  
Cooling Degree Days 0 0  
Month to date cooling degree days 0  
Year to date cooling degree days 0  
Moisture  
Dew Point 27 °F    
Average Humidity 58    
Maximum Humidity 86    
Minimum Humidity 30    
Precipitation  
Precipitation 0.01 in 0.07 in 1.42 in (1890)
Month to date precipitation 0.07  
Year to date precipitation 0.07  
Snow  
Snow 0.00 in 0.20 in 6.00 in (1999)
Month to date snowfall 0.2  
Since 1 July snowfall 6.4  
Snow Depth -    
Sea Level Pressure  
Sea Level Pressure 30.02 in    
Wind  
Wind Speed 22 mph (West)    
Max Wind Speed 39 mph    
Max Gust Speed 51 mph    
Visibility 10 miles    
Events Rain    
T = Trace of Precipitation, MM = Missing Value Source: NWS Daily Summary

Daily Weather History Graph

Daily Weather History Graph

Search for Another Location

Airport or City:

Trip Planner

Search our weather history database for the weather conditions in past years. The results will help you decide how hot, cold, wet, or windy it might be!

Date:

Astronomy

Jan. 01, 2012 Rise Set
Actual Time 7:22 AM CST 4:46 PM CST
Civil Twilight 6:51 AM CST 5:17 PM CST
Nautical Twilight 6:18 AM CST 5:50 PM CST
Astronomical Twilight 5:45 AM CST 6:23 PM CST
Moon 11:35 AM CST (1/1) 12:17 AM CST (1/1)
Length of Visible Light 10h 25m
Length of Day
9h 24m
First Quarter, 55% of the Moon is Illuminated
Jan 1
First Quarter
Jan 9
Full
Jan 16
Last Quarter
Jan 23
New
Jan 30
First Quarter

Hourly Weather History & Observations

Time (CST) Temp. Windchill Dew Point Humidity Pressure Visibility Wind Dir Wind Speed Gust Speed Precip Events Conditions
12:15 AM 50.2 °F - 37.4 °F 62% 29.62 in 10.0 mi South 13.8 mph 19.6 mph N/A   Clear
12:35 AM 50.2 °F - 37.9 °F 63% 29.63 in 10.0 mi SSW 11.5 mph - N/A   Clear
12:55 AM 48.6 °F - 37.8 °F 66% 29.64 in 10.0 mi WSW 9.2 mph - N/A   Clear
1:15 AM 49.1 °F - 37.6 °F 64% 29.64 in 10.0 mi WSW 11.5 mph - N/A   Clear
1:35 AM 51.1 °F - 36.1 °F 57% 29.66 in 10.0 mi West 21.9 mph 33.4 mph N/A   Clear
1:55 AM 48.2 °F - 33.8 °F 58% 29.68 in 10.0 mi West 23.0 mph 28.8 mph N/A   Clear
2:15 AM 45.7 °F 36.9 °F 34.0 °F 64% 29.70 in 10.0 mi West 25.3 mph 36.8 mph N/A   Clear
2:35 AM 44.1 °F 35.4 °F 34.3 °F 69% 29.73 in 10.0 mi West 21.9 mph 27.6 mph N/A   Clear
2:55 AM 43.7 °F 36.0 °F 34.3 °F 70% 29.73 in 10.0 mi West 17.3 mph 25.3 mph N/A   Scattered Clouds
3:15 AM 44.1 °F 36.2 °F 34.7 °F 70% 29.75 in 10.0 mi West 18.4 mph 24.2 mph N/A   Mostly Cloudy
3:35 AM 44.2 °F 36.4 °F 34.9 °F 70% 29.76 in 10.0 mi West 18.4 mph 29.9 mph N/A   Overcast
3:55 AM 44.2 °F 36.2 °F 35.2 °F 71% 29.77 in 10.0 mi West 19.6 mph 28.8 mph N/A   Overcast
4:15 AM 44.1 °F 33.8 °F 35.6 °F 72% 29.78 in 10.0 mi West 31.1 mph 36.8 mph N/A   Overcast
4:35 AM 43.7 °F 33.9 °F 35.2 °F 72% 29.80 in 10.0 mi West 27.6 mph 36.8 mph N/A   Overcast
4:55 AM 43.2 °F 33.2 °F 34.7 °F 72% 29.83 in 10.0 mi West 27.6 mph 39.1 mph N/A   Overcast
5:15 AM 41.0 °F 29.8 °F 35.1 °F 79% 29.86 in 7.0 mi West 29.9 mph 47.2 mph N/A Rain Rain
5:35 AM 40.3 °F 29.5 °F 36.3 °F 86% 29.88 in 7.0 mi West 26.5 mph 33.4 mph 0.01 in Rain Rain
5:55 AM 41.0 °F 30.5 °F 36.7 °F 85% 29.90 in 10.0 mi West 26.5 mph 38.0 mph 0.01 in   Overcast
6:15 AM 41.9 °F 31.5 °F 36.1 °F 80% 29.93 in 10.0 mi WNW 27.6 mph 43.7 mph N/A   Overcast
6:35 AM 41.9 °F 31.9 °F 34.7 °F 76% 29.95 in 10.0 mi WNW 25.3 mph 35.7 mph N/A   Overcast
6:55 AM 41.0 °F 30.9 °F 32.5 °F 72% 29.98 in 10.0 mi WNW 24.2 mph 39.1 mph N/A   Overcast
7:15 AM 40.6 °F 32.3 °F 32.5 °F 73% 29.99 in 10.0 mi WNW 16.1 mph 31.1 mph N/A   Overcast
7:35 AM 40.6 °F 31.2 °F 32.2 °F 72% 30.01 in 10.0 mi WNW 20.7 mph 31.1 mph N/A   Overcast
7:55 AM 39.2 °F 28.7 °F 31.8 °F 75% 30.03 in 10.0 mi West 23.0 mph 33.4 mph N/A   Mostly Cloudy
8:15 AM 38.8 °F 29.1 °F 30.2 °F 71% 30.06 in 10.0 mi WNW 19.6 mph 28.8 mph N/A   Scattered Clouds
8:35 AM 38.7 °F 27.5 °F 31.3 °F 75% 30.08 in 10.0 mi WNW 25.3 mph 32.2 mph N/A   Scattered Clouds
8:55 AM 38.7 °F 27.5 °F 29.5 °F 70% 30.10 in 10.0 mi WNW 25.3 mph 35.7 mph N/A   Clear
9:15 AM 39.2 °F 28.5 °F 30.4 °F 71% 30.11 in 10.0 mi West 24.2 mph 28.8 mph N/A   Clear
9:35 AM 39.7 °F 29.2 °F 28.9 °F 65% 30.13 in 10.0 mi WNW 24.2 mph 34.5 mph N/A   Clear
9:55 AM 40.5 °F 30.2 °F 29.3 °F 64% 30.14 in 10.0 mi West 24.2 mph 28.8 mph N/A   Clear
10:15 AM 40.6 °F 30.7 °F 26.1 °F 56% 30.15 in 10.0 mi WNW 23.0 mph 31.1 mph N/A   Clear
10:35 AM 41.0 °F 30.5 °F 27.1 °F 58% 30.16 in 10.0 mi WNW 26.5 mph 36.8 mph N/A   Clear
10:55 AM 41.5 °F 31.4 °F 25.5 °F 53% 30.16 in 10.0 mi WNW 25.3 mph 34.5 mph N/A   Clear
11:15 AM 42.4 °F 32.8 °F 26.1 °F 52% 30.16 in 10.0 mi WNW 24.2 mph 35.7 mph N/A   Clear
11:35 AM 42.4 °F 32.6 °F 26.1 °F 52% 30.16 in 10.0 mi WNW 25.3 mph 36.8 mph N/A   Clear
11:55 AM 42.6 °F 32.4 °F 24.4 °F 49% 30.16 in 10.0 mi WNW 27.6 mph 36.8 mph N/A   Clear
12:15 PM 42.8 °F 32.1 °F 25.2 °F 50% 30.16 in 10.0 mi West 31.1 mph 36.8 mph N/A   Clear
12:35 PM 43.3 °F 33.4 °F 24.3 °F 47% 30.16 in 10.0 mi West 27.6 mph 35.7 mph N/A   Clear
12:55 PM 43.3 °F 32.5 °F 22.5 °F 44% 30.16 in 10.0 mi West 33.4 mph 38.0 mph N/A   Clear
1:15 PM 44.1 °F 33.8 °F 19.9 °F 38% 30.16 in 10.0 mi WNW 31.1 mph 36.8 mph N/A   Clear
1:35 PM 44.8 °F 34.3 °F 19.2 °F 36% 30.16 in 10.0 mi West 34.5 mph 40.3 mph N/A   Clear
1:55 PM 45.1 °F 35.3 °F 19.4 °F 36% 30.16 in 10.0 mi West 31.1 mph 42.6 mph N/A   Clear
2:15 PM 44.4 °F 33.2 °F 15.4 °F 31% 30.18 in 10.0 mi WNW 39.1 mph 50.6 mph N/A   Clear
2:35 PM 44.2 °F 33.1 °F 16.2 °F 32% 30.18 in 10.0 mi West 38.0 mph 49.5 mph N/A   Clear
2:55 PM 43.9 °F 32.5 °F 16.0 °F 33% 30.20 in 10.0 mi West 39.1 mph 47.2 mph N/A   Scattered Clouds
3:15 PM 42.3 °F 30.9 °F 12.9 °F 30% 30.21 in 10.0 mi WNW 34.5 mph 43.7 mph N/A   Scattered Clouds
3:35 PM 42.1 °F 31.7 °F 15.3 °F 34% 30.23 in 10.0 mi WNW 27.6 mph 35.7 mph N/A   Clear
3:55 PM 41.0 °F 29.8 °F 14.5 °F 34% 30.25 in 10.0 mi WNW 29.9 mph 38.0 mph N/A   Clear
4:15 PM 40.5 °F 29.1 °F 14.4 °F 35% 30.26 in 10.0 mi WNW 29.9 mph 38.0 mph N/A   Clear
4:35 PM 39.6 °F 28.7 °F 14.4 °F 36% 30.27 in 10.0 mi WNW 25.3 mph 36.8 mph N/A   Clear
4:55 PM 38.7 °F 27.8 °F 14.7 °F 38% 30.28 in 10.0 mi WNW 24.2 mph 32.2 mph N/A   Clear
5:15 PM 38.5 °F 28.1 °F 14.9 °F 38% 30.29 in 10.0 mi WNW 21.9 mph 35.7 mph N/A   Clear
5:35 PM 37.0 °F 27.4 °F 17.6 °F 45% 30.29 in 10.0 mi West 17.3 mph 23.0 mph N/A   Clear
5:55 PM 36.0 °F 27.5 °F 19.2 °F 51% 30.30 in 10.0 mi West 12.7 mph - N/A   Scattered Clouds
6:15 PM 36.7 °F 27.2 °F 18.5 °F 48% 30.30 in 10.0 mi WNW 16.1 mph 21.9 mph N/A   Mostly Cloudy
6:35 PM 37.8 °F 28.6 °F 17.2 °F 43% 30.30 in 10.0 mi WNW 16.1 mph 27.6 mph N/A   Mostly Cloudy
6:55 PM 37.6 °F 26.9 °F 16.9 °F 43% 30.30 in 10.0 mi WNW 21.9 mph 29.9 mph N/A   Mostly Cloudy
7:15 PM 36.5 °F 27.0 °F 18.7 °F 49% 30.30 in 10.0 mi NW 16.1 mph 24.2 mph N/A   Scattered Clouds
7:35 PM 35.2 °F 24.7 °F 19.9 °F 54% 30.31 in 10.0 mi WNW 18.4 mph 26.5 mph N/A   Scattered Clouds
7:55 PM 35.6 °F 26.2 °F 19.9 °F 53% 30.32 in 10.0 mi WNW 15.0 mph 25.3 mph N/A   Scattered Clouds
8:15 PM 35.1 °F 24.8 °F 20.7 °F 56% 30.32 in 10.0 mi WNW 17.3 mph 26.5 mph N/A   Mostly Cloudy
8:35 PM 35.2 °F 24.1 °F 20.5 °F 55% 30.32 in 10.0 mi WNW 20.7 mph 28.8 mph N/A   Overcast
8:55 PM 35.2 °F 24.4 °F 19.8 °F 53% 30.32 in 10.0 mi WNW 19.6 mph 28.8 mph N/A   Overcast
9:15 PM 35.4 °F 24.9 °F 19.4 °F 52% 30.32 in 10.0 mi WNW 18.4 mph 29.9 mph N/A   Overcast
9:35 PM 35.4 °F 23.5 °F 18.7 °F 51% 30.31 in 10.0 mi WNW 24.2 mph 34.5 mph N/A   Overcast
9:55 PM 35.1 °F 21.8 °F 17.1 °F 48% 30.31 in 10.0 mi WNW 29.9 mph 41.4 mph N/A   Overcast
10:15 PM 34.7 °F 22.8 °F 18.1 °F 51% 30.31 in 10.0 mi WNW 23.0 mph 33.4 mph N/A   Overcast
10:35 PM 34.7 °F 23.7 °F 18.1 °F 51% 30.31 in 10.0 mi WNW 19.6 mph 33.4 mph N/A   Overcast
10:55 PM 33.8 °F 21.0 °F 17.6 °F 52% 30.32 in 10.0 mi WNW 25.3 mph 34.5 mph N/A   Mostly Cloudy
11:15 PM 33.3 °F 20.3 °F 16.9 °F 51% 30.31 in 10.0 mi NW 25.3 mph 42.6 mph N/A   Mostly Cloudy
11:35 PM 32.9 °F 20.4 °F 16.7 °F 51% 30.31 in 10.0 mi WNW 23.0 mph 35.7 mph N/A   Scattered Clouds
11:55 PM 32.0 °F 19.8 °F 17.6 °F 55% 30.31 in 10.0 mi WNW 20.7 mph 33.4 mph N/A   Scattered Clouds